Avalon, CA

1:09 AM PDT on April 21, 2018 (GMT -0700)
Catalina

Weather History for KAVX - October, 2013

Change the Weather History Date:

Tuesday, October 15, 2013

  Actual Average Record
Temperature  
Mean Temperature 72 °F -  
Max Temperature 79 °F 69 °F 89 °F (2017)
Min Temperature 66 °F 55 °F 51 °F (2002)
Cooling Degree Days 8    
Growing Degree Days 22 (Base 50)    
Moisture  
Dew Point 27 °F    
Average Humidity 20    
Maximum Humidity 29    
Minimum Humidity 12    
Precipitation  
Precipitation 0.00 in - - ()
Sea Level Pressure  
Sea Level Pressure 29.90 in    
Wind  
Wind Speed 7 mph (NE)    
Max Wind Speed 14 mph    
Max Gust Speed -    
Visibility 10 miles    
Events      
Averages and records for this station are not official NWS values.
T = Trace of Precipitation, MM = Missing Value Source: NWS Daily Summary

Daily Weather History Graph

Daily Weather History Graph

Search for Another Location

Airport or City:

Astronomy

Oct. 15, 2013 Rise Set
Actual Time 6:58 AM PDT 6:19 PM PDT
Civil Twilight 6:33 AM PDT 6:44 PM PDT
Nautical Twilight 6:04 AM PDT 7:13 PM PDT
Astronomical Twilight 5:35 AM PDT 7:42 PM PDT
Moon 4:19 PM PDT (10/15) 3:35 AM PDT (10/15)
Length of Visible Light 12h 11m
Length of Day
11h 21m
Waxing Gibbous, 88% of the Moon is Illuminated
Oct 15
Waxing Gibbous
Oct 18
Full
Oct 26
Last Quarter
Nov 3
New
Nov 9
First Quarter

Hourly Weather History & Observations

Time (PDT) Temp. Dew Point Humidity Pressure Visibility Wind Dir Wind Speed Gust Speed Precip Events Conditions
12:51 AM 70.0 °F 21.9 °F 16% 29.91 in 10.0 mi ENE 5.8 mph - N/A   Clear
1:51 AM 70.0 °F 24.1 °F 18% 29.90 in 10.0 mi ENE 6.9 mph - N/A   Clear
2:51 AM 66.0 °F 30.9 °F 27% 29.88 in 10.0 mi East 8.1 mph - N/A   Clear
3:51 AM 69.1 °F 35.1 °F 29% 29.86 in 10.0 mi SE 13.8 mph - N/A   Clear
4:51 AM 68.0 °F 30.0 °F 24% 29.87 in 10.0 mi SE 11.5 mph - N/A   Clear
5:51 AM 66.9 °F 30.0 °F 25% 29.88 in 10.0 mi ESE 8.1 mph - N/A   Clear
6:51 AM 66.9 °F 25.0 °F 21% 29.90 in 10.0 mi East 8.1 mph - N/A   Clear
7:51 AM 71.1 °F 27.0 °F 19% 29.91 in 10.0 mi ENE 4.6 mph - N/A   Clear
8:51 AM 73.0 °F 28.0 °F 19% 29.92 in 10.0 mi East 6.9 mph - N/A   Clear
9:51 AM 73.9 °F 24.1 °F 16% 29.92 in 10.0 mi ENE 9.2 mph - N/A   Clear
10:51 AM 75.9 °F 25.0 °F 15% 29.92 in 10.0 mi ENE 8.1 mph - N/A   Clear
11:51 AM 77.0 °F 25.0 °F 15% 29.91 in 10.0 mi NE 5.8 mph - N/A   Clear
12:51 PM 78.1 °F 21.9 °F 12% 29.90 in 10.0 mi NE 4.6 mph - N/A   Clear
1:51 PM 79.0 °F 21.0 °F 12% 29.88 in 10.0 mi Calm Calm - N/A   Clear
2:51 PM 75.9 °F 34.0 °F 22% 29.88 in 10.0 mi West 6.9 mph - N/A   Clear
3:51 PM 73.9 °F 37.0 °F 26% 29.87 in 10.0 mi WSW 6.9 mph - N/A   Clear
4:51 PM 75.0 °F 33.1 °F 22% 29.87 in 10.0 mi WSW 4.6 mph - N/A   Clear
5:51 PM 75.0 °F 27.0 °F 17% 29.88 in 10.0 mi Calm Calm - N/A   Clear
6:51 PM 73.0 °F 26.1 °F 17% 29.89 in 10.0 mi NNW 4.6 mph - N/A   Clear
7:51 PM 68.0 °F 28.0 °F 22% 29.91 in 10.0 mi West 5.8 mph - N/A   Clear
8:51 PM 69.1 °F 28.9 °F 22% 29.92 in 10.0 mi NW 4.6 mph - N/A   Clear
9:51 PM 71.1 °F 25.0 °F 18% 29.94 in 10.0 mi North 5.8 mph - N/A   Clear
10:51 PM 70.0 °F 24.1 °F 18% 29.94 in 10.0 mi North 4.6 mph - N/A   Clear
11:51 PM 71.1 °F 23.0 °F 16% 29.94 in 10.0 mi NE 4.6 mph - N/A   Clear